Theta_e
338 350 342 341 338 339 344 345 347 347 345 346 345 344 343 342 341 339 338 339 338 336 333 331 330 332 334 334 329 320 315 318 327 336 337 339 340 341 343 341 344 345 334
339 350 341 340 336 338 343 346 348 348 347 347 347 345 344 342 340 334 336 334 331 326 324 323 323 322 317 313 311 310 312 318 323 327 333 333 337 340 341 341 341 342 337
341 349 344 340 336 338 343 345 347 347 348 348 347 346 345 339 336 332 332 327 323 321 320 318 315 311 310 310 310 309 309 314 319 322 332 336 337 331 337 342 340 339 337
343 349 346 340 337 334 343 343 346 347 348 348 347 345 338 334 329 327 324 322 319 316 314 312 312 312 313 314 313 312 310 309 316 325 333 335 335 327 331 342 340 340 338
345 347 347 338 338 333 336 343 344 346 347 345 342 335 330 328 324 322 320 318 315 314 313 313 315 316 317 317 316 313 312 315 320 337 336 337 337 333 329 332 341 336 338
344 346 350 337 339 336 332 336 341 343 342 336 328 325 324 324 321 320 318 315 314 314 315 316 318 320 321 322 322 316 316 324 333 337 337 336 337 334 329 332 332 332 335
342 343 352 338 337 338 335 332 333 333 333 326 322 323 322 321 320 319 316 315 315 316 317 318 320 322 323 324 325 325 320 323 338 337 338 338 338 331 329 331 333 333 331
340 342 350 340 335 337 337 334 331 329 326 324 321 321 320 320 320 318 316 315 315 317 318 318 319 321 324 325 325 326 326 326 333 335 336 337 338 331 330 330 334 334 330
339 342 348 348 341 337 337 336 333 331 327 324 322 321 322 322 321 319 316 315 315 318 318 317 318 319 322 325 326 326 326 324 336 333 332 332 334 333 332 331 333 333 330
339 341 345 347 346 347 346 338 335 333 329 327 325 323 323 325 324 322 318 317 317 319 319 317 318 318 321 323 326 327 327 325 332 334 333 334 331 332 334 333 332 334 330
337 339 342 342 343 344 343 345 337 335 333 330 329 327 327 337 337 338 329 331 318 319 321 320 319 319 321 322 325 327 327 331 334 333 333 335 328 331 333 334 333 334 332
335 337 339 341 342 342 341 343 346 345 344 343 342 343 341 339 340 338 338 332 328 319 322 323 324 325 328 329 333 329 331 330 333 332 332 336 329 331 333 334 334 334 333
334 335 338 342 343 343 340 341 344 342 343 344 344 345 345 342 342 342 339 341 337 332 333 333 333 333 332 331 331 331 331 332 331 331 331 332 331 331 334 336 336 334 333
337 333 336 341 346 346 342 342 342 341 342 343 345 348 347 346 344 342 338 337 338 335 335 333 333 334 334 333 332 330 331 330 329 330 330 331 330 334 335 335 335 334 333
336 338 335 337 343 345 346 341 341 342 342 342 344 347 346 344 342 341 339 337 335 334 333 333 333 333 334 334 333 333 332 331 331 330 329 331 329 331 336 337 337 333 332
335 333 336 338 340 343 343 342 340 341 340 343 342 342 346 343 341 340 340 338 334 332 331 331 332 333 334 334 334 336 334 334 333 333 333 333 330 324 331 336 338 334 333
326 324 332 337 339 342 341 342 340 338 340 338 338 341 343 344 341 340 336 335 332 332 335 334 334 335 335 334 336 336 337 337 337 338 339 337 333 330 324 331 338 336 333
322 321 321 334 339 342 342 342 339 337 337 336 338 336 337 340 340 340 333 332 332 333 334 334 335 337 337 338 339 340 340 339 339 340 340 334 334 338 338 336 337 338 335
320 322 322 321 335 342 344 343 340 338 338 335 335 330 330 336 337 334 332 332 324 332 335 336 338 339 339 341 342 341 341 340 340 340 340 338 340 340 340 341 339 337 336
319 321 323 324 329 335 341 345 343 340 338 336 334 334 336 337 336 335 333 324 325 330 336 336 338 339 342 343 343 342 341 341 340 341 341 340 340 341 342 342 341 339 336
320 322 321 324 322 322 337 339 343 341 343 341 338 335 337 337 337 336 333 327 329 332 331 332 333 342 344 344 344 344 343 343 342 341 341 341 341 341 341 342 342 339 339
320 322 322 323 324 324 329 333 334 338 342 345 342 337 336 337 337 336 329 335 335 335 338 339 342 344 345 345 345 344 348 345 343 343 342 342 342 341 341 341 340 340 340
318 319 319 322 323 325 326 326 328 332 333 343 346 344 341 340 339 333 331 338 337 340 341 342 345 346 345 345 344 345 348 346 343 343 343 342 342 341 339 340 340 340 340
317 317 319 321 323 323 326 325 327 334 341 340 342 344 345 344 342 339 341 339 342 340 340 345 347 347 347 346 344 343 345 344 344 344 340 341 341 341 340 338 338 338 338
317 318 319 321 322 324 326 327 327 328 329 332 337 343 348 348 346 343 342 343 343 343 343 345 348 348 346 346 345 345 345 344 343 343 342 340 339 338 338 339 337 335 336
318 319 320 321 322 323 324 325 327 328 329 330 331 338 344 349 349 348 344 346 344 343 346 349 349 348 346 345 346 346 345 345 343 342 341 342 339 338 338 337 336 335 335
Wind_Speed
17 25 36 34 30 28 28 29 30 29 28 26 25 23 21 20 18 16 17 15 13 11 10 9 9 8 6 5 4 4 5 6 7 7 8 8 7 8 6 5 6 5 4
24 28 37 35 32 30 31 30 31 30 29 27 25 23 21 20 18 17 16 14 13 12 11 10 9 7 6 5 5 6 6 6 7 8 8 8 6 6 4 3 4 3 3
26 30 37 37 34 32 32 32 32 31 30 27 25 23 21 20 19 17 15 15 13 12 11 10 10 9 8 7 6 7 7 7 7 8 10 5 6 5 3 2 2 2 2
24 29 33 39 37 34 33 33 33 31 29 27 25 24 22 21 19 18 16 15 14 13 13 12 11 11 10 10 8 7 8 8 7 8 4 4 5 3 5 5 2 1 1
26 28 32 41 39 36 34 33 33 33 31 28 26 25 24 22 20 19 17 16 15 14 13 12 11 10 10 10 9 8 9 8 7 5 3 3 3 2 4 5 4 3 1
26 28 31 41 40 38 35 33 33 33 31 29 28 27 25 23 21 20 18 16 15 14 13 12 11 9 8 8 8 8 8 7 6 3 3 1 3 3 3 4 4 3 2
28 29 29 43 40 39 37 35 34 33 31 30 29 28 26 24 22 20 18 16 14 14 13 11 10 9 9 9 8 7 6 6 4 3 2 1 3 7 5 3 2 2 1
27 28 29 42 40 39 37 35 34 34 33 32 29 28 26 24 22 20 18 17 15 14 12 11 10 9 9 8 7 7 6 5 4 5 5 3 4 9 6 4 2 1 0
23 24 27 32 38 38 37 35 34 33 33 32 30 28 25 22 20 19 18 17 15 14 13 12 10 10 10 9 9 8 8 7 6 6 5 5 8 9 9 7 4 2 1
21 22 24 28 30 29 30 35 34 33 32 31 29 27 24 22 20 19 18 17 14 14 14 12 12 11 11 11 11 10 10 8 7 7 7 6 9 8 11 10 7 4 2
19 21 23 26 27 27 27 26 34 33 32 31 28 26 23 16 15 16 16 15 15 14 15 14 12 12 13 13 13 12 12 10 9 9 8 10 8 9 9 11 9 6 4
18 21 22 24 26 26 26 25 26 24 25 23 21 19 20 17 15 16 14 17 16 15 15 15 15 14 14 12 12 14 13 13 11 11 10 11 8 9 7 9 10 8 6
19 20 21 22 23 26 26 25 23 25 24 24 23 22 19 17 15 15 13 11 13 14 12 14 14 14 14 13 13 12 13 13 14 13 12 13 11 11 10 8 9 10 9
9 21 21 21 22 24 24 25 23 26 24 24 24 22 20 19 16 15 14 11 12 13 13 14 13 14 14 15 14 14 15 15 14 14 13 14 13 12 12 11 9 9 10
2 10 21 23 24 23 23 23 23 25 25 23 21 23 22 20 17 16 14 12 12 10 11 10 12 13 13 14 15 16 16 16 16 15 14 14 15 15 15 13 10 10 11
5 2 7 20 25 26 27 25 23 23 23 22 21 21 21 19 17 15 13 11 11 10 11 9 10 12 15 15 15 16 17 16 15 15 15 14 15 17 18 16 12 12 12
3 0 6 12 19 24 25 24 25 22 23 22 22 19 18 19 17 14 12 11 10 10 11 12 11 12 13 16 17 15 16 15 16 15 14 14 13 14 19 18 15 13 13
8 7 9 5 10 18 22 23 25 24 23 23 21 23 28 21 20 16 14 13 12 11 13 13 12 10 12 15 18 15 15 14 14 13 13 12 11 12 11 14 16 15 14
6 4 5 8 9 12 12 14 19 21 22 25 22 29 31 23 22 21 18 17 18 12 15 15 10 9 11 15 16 17 15 15 14 13 12 13 12 12 12 10 13 13 16
11 10 8 4 7 12 10 7 11 17 21 25 27 26 23 23 26 24 20 20 20 16 15 11 14 10 13 14 15 18 16 16 16 14 14 14 12 13 14 14 10 11 12
7 10 14 12 12 7 18 6 6 19 16 22 26 28 28 27 26 28 23 25 26 29 22 25 31 15 15 13 15 18 17 18 17 16 14 14 14 14 15 13 12 13 11
10 7 7 11 15 15 10 15 12 15 15 20 24 31 32 29 30 29 30 29 31 26 18 17 11 14 13 15 15 15 8 13 16 17 16 15 14 14 13 13 14 12 13
10 12 9 8 8 7 10 9 18 20 24 25 23 27 30 31 33 36 34 29 30 28 18 19 15 17 18 18 23 14 6 7 2 7 13 14 11 13 13 12 12 11 12
11 11 12 9 7 7 5 10 15 18 20 31 30 25 25 28 31 32 32 31 25 25 21 16 16 21 20 21 18 23 22 12 5 5 8 10 10 11 10 10 10 9 10
9 13 12 13 12 8 7 10 14 21 27 28 27 23 21 23 27 28 34 30 27 26 19 20 20 23 22 24 20 15 21 16 13 9 6 9 11 13 11 10 10 9 9
10 10 12 15 13 12 11 11 13 18 22 24 20 23 22 21 23 28 32 30 29 28 23 23 24 21 24 26 21 19 17 15 12 11 8 9 9 7 9 10 9 8 8
Wind_Direction
168 167 170 172 175 175 175 176 175 173 170 169 168 165 163 161 159 159 160 160 159 154 148 143 145 142 136 133 129 119 108 106 107 102 96 93 92 90 84 67 63 86 76
166 168 171 173 178 177 177 177 176 175 173 173 171 170 168 168 165 164 162 162 159 153 152 150 145 146 143 141 131 119 118 117 114 111 103 71 75 92 76 57 71 48 73
165 167 171 174 179 181 180 179 178 178 178 176 176 175 173 171 168 167 167 163 161 158 156 154 156 153 153 143 136 132 132 136 131 120 103 100 87 96 95 62 57 68 92
170 168 170 176 181 184 183 182 181 181 181 180 180 180 177 174 171 170 171 168 165 164 163 163 163 157 153 150 141 135 138 143 139 126 112 109 95 92 106 116 66 53 37
172 174 175 177 182 186 186 186 185 184 184 183 183 183 180 178 175 174 175 175 172 168 169 166 166 166 157 152 147 151 153 148 142 115 141 115 130 133 113 108 87 35 62
178 176 183 178 183 189 189 188 189 188 188 186 185 184 182 182 179 178 179 180 176 175 174 172 173 171 164 161 156 159 165 160 154 168 156 101 163 197 142 117 128 161 244
182 177 182 181 185 190 193 194 192 191 191 188 186 186 186 186 184 182 184 186 185 181 180 180 180 183 182 179 171 176 181 184 226 233 217 194 189 203 180 160 120 115 205
182 178 181 184 187 191 196 199 198 196 193 191 189 191 191 191 189 188 189 191 194 193 185 187 192 197 203 199 196 190 205 197 245 246 245 237 222 205 196 194 200 133 162
183 183 183 184 189 192 197 201 200 201 199 195 195 194 198 198 198 199 197 200 203 199 198 196 203 210 215 217 218 220 219 216 236 252 249 242 239 215 209 208 215 205 197
188 190 189 186 188 191 197 203 205 204 204 203 201 202 201 204 206 209 209 212 210 211 213 212 212 219 227 226 232 235 237 241 246 252 252 242 239 228 217 215 216 223 226
196 195 193 191 191 192 195 204 207 210 209 210 208 207 208 206 214 219 216 224 224 224 228 230 226 226 230 233 238 240 246 254 249 253 256 246 242 223 221 219 218 226 235
200 200 197 196 193 194 196 199 204 210 212 211 212 212 209 212 214 214 217 226 227 226 237 240 239 235 236 240 250 248 247 255 253 251 251 250 244 218 221 225 224 226 239
205 209 206 199 199 198 198 200 203 207 212 213 212 211 212 216 219 220 214 224 224 234 233 249 248 240 240 242 248 250 251 252 254 252 251 249 244 222 225 234 234 223 235
213 213 212 208 204 203 202 202 202 204 209 213 215 213 209 211 216 218 217 218 218 224 225 235 245 247 247 250 251 254 252 252 254 255 254 252 245 230 230 235 235 228 232
171 221 217 212 210 208 208 206 207 207 211 214 214 214 211 214 216 215 217 213 226 231 237 242 258 260 260 259 258 257 256 253 252 251 254 253 252 238 236 237 231 237 233
290 196 241 223 217 210 210 209 211 213 216 216 219 219 217 219 218 214 214 217 230 238 247 241 255 262 256 251 249 253 255 253 250 249 250 251 257 245 239 238 238 233 239
351 295 278 233 225 219 219 221 218 219 218 219 224 219 218 218 219 212 215 215 229 240 245 242 236 252 264 267 261 251 255 252 247 247 251 252 247 253 247 239 241 238 237
42 29 280 255 225 219 222 219 228 230 228 230 220 218 223 214 212 211 214 216 217 220 233 237 233 231 252 260 265 261 255 252 244 243 249 244 237 245 237 244 245 237 235
15 1 62 264 245 224 215 232 237 237 235 237 236 242 239 216 213 209 211 217 221 225 226 232 242 233 247 259 265 261 254 250 246 241 241 237 236 239 239 225 248 240 231
357 0 6 24 228 234 183 198 240 239 243 242 234 232 233 224 211 208 214 222 221 225 219 256 238 238 243 257 266 260 255 251 245 240 239 239 236 237 239 244 252 240 234
356 343 356 337 330 307 241 218 246 255 240 248 244 231 224 217 216 209 210 218 216 221 206 224 243 217 235 246 259 254 255 249 245 243 241 242 241 239 247 246 248 250 247
335 348 334 340 341 336 310 242 247 265 272 263 253 236 223 218 214 215 216 213 214 222 213 214 210 226 227 229 234 244 262 224 232 237 244 243 246 247 247 247 252 251 249
338 337 340 341 320 309 301 283 256 266 264 266 242 239 226 218 211 214 214 211 215 218 215 222 215 222 226 228 224 227 234 241 214 186 230 237 238 242 252 248 247 242 240
334 331 327 327 321 295 260 253 244 242 237 236 243 237 231 219 215 215 211 212 220 218 211 214 218 221 220 229 223 228 247 268 225 211 209 217 229 240 233 241 243 242 241
327 323 324 321 321 297 270 252 248 241 243 244 245 244 231 226 222 217 214 216 215 220 220 215 213 216 220 229 217 214 225 229 238 262 244 201 214 239 240 236 247 246 238
321 326 327 323 312 303 283 272 255 252 258 260 252 247 241 232 227 219 215 219 219 224 220 218 214 211 220 224 222 224 215 218 227 236 239 254 259 188 224 241 238 239 239